Location: Kawakawa
(35.3830°S, 174.0670°E)
Time: 11:32:24
(UTC+13:00)

Altair - Pass Details

Date: 14 December 2019
Orbit: 1502 x 1682 km, 47.2° (Epoch: 24 January)

Event Time Altitude Azimuth Distance (km) Brightness Sun altitude
Rises 17:55:33 0° 244° (WSW) 4,947 11.2 29.5°
Reaches altitude 10° 17:59:29 10° 256° (WSW) 3,959 11.4 28.7°
Maximum altitude 18:07:07 25° 305° (NW) 2,938 9.9 27.2°
Drops below altitude 10° 18:14:41 10° 355° (N) 3,901 9.6 25.7°
Sets 18:18:34 0° 8° (N) 4,860 9.9 24.9°
